SCP
0 0 0 0 0 0 0 0 0 0 0 0 0 0 0 0 0 0 0 0 0 0 0 0 0 0 0 0 0 0 0 0 0 0 0 0 0 0 0 0 0 0 0
0 0 0 0 0 0 0 0 0 0 0 0 0 0 0 0 0 0 0 0 0 0 0 0 0 0 0 0 0 0 0 0 0 0 0 0 0 0 0 0 0 0 0
0 0 0 0 0 0 0 0 0 0 0 0 0 0 0 0 0 0 0 0 0 0 0 0 0 0 0 0 0 0 0 0 0 0 0 0 0 0 0 0 0 0 0
0 0 0 0 0 0 0 0 0 0 0 0 0 0 0 0 0 0 0 0 0 0 0 0 0 0 0 0 0 0 0 0 0 0 0 0 0 0 0 0 0 0 0
0 0 0 0 0 0 0 0 0 0 0 0 0 0 0 0 0 0 0 0 0 0 0 0 0 0 0 0 0 0 0 0 0 0 0 0 0 0 0 0 0 0 0
0 0 0 0 0 0 0 0 0 0 0 0 0 0 0 0 0 0 0 0 0 0 0 0 0 0 0 0 0 0 0 0 0 0 0 0 0 0 0 0 0 0 0
0 0 0 0 0 0 0 0 0 0 0 0 0 0 0 0 0 0 0 0 0 0 0 0 0 0 0 0 0 0 0 0 0 0 0 0 0 0 0 0 0 0 0
0 0 0 0 0 0 0 0 0 0 0 0 0 0 0 0 0 0 0 0 0 0 0 0 0 0 0 0 0 0 0 0 0 0 0 0 0 0 0 0 0 0 0
0 0 0 0 0 0 0 0 0 0 0 0 0 0 0 0 0 0 0 0 0 0 0 0 0 0 0 0 0 0 0 0 0 0 0 0 0 0 0 0 0 0 0
0 0 0 0 0 0 0 0 0 0 0 0 0 0 0 0 0 0 0 0 0 0 0 0 0 0 0 0 0 0 0 0 0 0 0 0 0 0 0 0 0 0 0
0 0 0 0 0 0 0 0 0 0 0 0 0 0 0 0 0 0 0 0 0 0 0 0 0 0 0 0 0 0 0 0 0 0 0 0 0 0 0 0 0 0 0
0 0 0 0 0 0 0 0 0 0 0 0 0 0 0 0 0 0 0 0 0 0 0 0 0 0 0 0 0 0 0 0 0 0 0 0 0 0 0 0 0 0 0
0 0 0 0 0 0 0 0 0 0 0 0 0 0 0 0 0 0 0 0 0 0 0 0 0 0 0 0 0 0 0 0 0 0 0 0 0 0 0 0 0 0 0
0 0 0 0 0 0 0 0 0 0 0 0 0 0 0 0 0 0 0 0 0 0 0 0 0 0 0 0 0 0 0 0 0 0 0 0 0 0 0 0 0 0 0
0 0 0 0 0 0 0 0 0 0 0 0 0 0 0 0 0 0 0 0 0 0 0 0 0 0 0 0 0 0 0 0 0 0 0 0 0 0 0 0 0 0 0
0 0 0 0 0 0 0 0 0 0 0 0 0 0 0 0 0 0 0 0 0 0 0 0 0 0 0 0 0 0 0 0 0 0 0 0 0 0 0 0 0 0 0
0 0 0 0 0 0 0 0 0 0 0 0 0 0 0 0 0 0 0 0 0 0 0 0 0 0 0 0 0 0 0 0 0 0 0 0 0 0 0 0 0 0 0
0 0 0 0 0 0 0 0 0 0 0 0 0 0 0 0 0 0 0 0 0 0 0 0 0 0 0 0 0 0 0 0 0 0 0 0 0 0 0 0 0 0 0
0 0 0 0 0 0 0 0 0 0 0 0 0 0 0 0 0 0 0 0 0 0 0 0 0 0 0 0 0 0 0 0 0 0 0 0 0 0 0 0 0 0 0
0 0 0 0 0 0 0 0 0 0 0 0 0 0 0 0 0 0 0 0 0 0 0 0 0 0 0 0 0 0 0 0 0 0 0 0 0 0 0 0 0 0 0
0 0 0 0 0 0 0 0 0 0 0 0 0 0 0 0 0 0 0 0 0 0 0 0 0 0 0 0 0 0 0 0 0 0 0 0 0 0 0 0 0 0 0
0 0 0 0 0 0 0 0 0 0 0 0 0 0 0 0 0 0 0 0 0 0 0 0 0 0 0 0 0 0 0 0 0 0 0 0 0 0 0 0 0 0 0
0 0 0 0 0 0 0 0 0 0 0 0 0 0 0 0 0 0 0 0 0 0 0 0 0 0 0 0 0 0 0 0 0 0 0 0 0 0 0 0 0 0 0
0 0 0 0 0 0 0 0 0 0 0 0 0 0 0 0 0 0 0 0 0 0 0 0 0 0 0 0 0 0 0 0 0 0 0 0 0 0 0 0 0 0 0
0 0 0 0 0 0 0 0 0 0 0 0 0 0 0 0 0 0 0 0 0 0 0 0 0 0 0 0 0 0 0 0 0 0 0 0 0 0 0 0 0 0 0
0 0 0 0 0 0 0 0 0 0 0 0 0 0 0 0 0 0 0 0 0 0 0 0 0 0 0 0 0 0 0 0 0 0 0 0 0 0 0 0 0 0 0
Wind_Speed
6 9 9 9 9 9 9 9 9 10 10 10 10 10 10 10 10 10 10 11 11 10 10 10 10 10 10 10 9 9 8 8 8 8 8 8 7 7 6 5 5 5 7
8 10 10 9 9 9 9 9 9 9 9 9 10 10 10 10 10 10 10 10 10 10 10 10 9 10 10 10 10 9 8 8 8 7 7 6 6 6 6 6 7 5 7
9 10 9 8 9 9 9 9 9 9 9 9 9 9 9 10 10 10 10 10 10 10 10 9 9 10 10 10 9 9 8 7 6 5 4 3 4 7 7 7 6 6 6
10 10 9 8 8 9 9 9 9 9 8 8 8 9 9 9 9 9 9 10 10 10 9 9 10 10 9 9 8 7 7 6 5 3 2 3 4 8 7 7 6 6 6
10 11 10 9 9 9 9 8 9 9 8 8 8 8 8 8 9 9 10 10 10 10 10 9 10 9 9 8 7 7 6 6 6 5 4 4 4 7 7 6 5 6 6
9 11 10 10 9 9 9 9 9 9 9 8 8 8 8 8 8 8 9 9 9 9 9 9 9 9 8 8 7 6 6 6 5 4 4 4 4 7 7 7 6 6 6
8 10 10 10 9 9 9 9 8 8 8 8 8 8 8 8 8 8 8 8 8 8 9 9 8 8 8 8 7 7 6 6 3 4 4 4 5 8 8 7 7 7 7
8 9 10 10 10 9 8 8 8 7 7 7 7 7 7 7 8 8 8 8 8 8 8 8 8 8 8 7 7 7 7 6 5 6 5 4 8 9 9 9 8 8 8
7 7 8 8 8 8 8 7 7 6 6 6 6 6 6 7 7 8 8 7 7 7 7 7 7 7 6 6 6 6 6 6 4 3 5 5 9 9 9 9 8 8 7
5 5 6 7 6 6 6 6 6 5 5 4 4 4 4 6 6 7 7 7 7 6 6 6 6 6 5 4 4 4 5 5 4 5 4 5 10 10 9 9 8 8 7
4 4 4 5 5 5 5 6 5 4 3 3 2 2 2 2 3 3 6 6 6 5 5 4 4 4 3 2 1 1 2 2 4 4 4 9 10 10 9 9 8 8 8
4 3 3 4 4 5 4 4 3 3 2 1 1 2 1 2 3 5 5 5 4 4 3 3 2 1 1 0 1 1 1 3 3 4 5 10 10 10 10 9 8 8 8
4 3 3 3 4 4 3 3 1 1 1 1 1 1 1 2 2 3 2 2 1 2 1 1 1 0 1 1 2 1 3 3 3 4 6 10 10 10 9 9 9 8 8
4 3 2 3 3 4 3 2 2 1 1 1 1 1 2 1 1 2 1 2 1 1 1 1 1 1 2 2 3 3 4 3 4 3 5 10 10 10 10 9 8 8 8
4 3 3 3 2 3 3 2 2 2 1 2 1 1 2 2 2 2 2 2 2 1 1 1 2 3 3 4 4 4 4 4 4 4 4 9 10 10 9 9 8 8 8
3 3 3 2 3 4 3 2 2 2 2 2 1 1 2 2 2 2 2 2 2 1 1 1 2 3 3 3 4 4 4 3 4 4 4 5 8 9 9 9 8 8 8
3 3 3 2 3 3 3 2 2 2 2 1 1 1 2 2 2 2 2 2 1 1 2 2 3 2 2 3 3 3 3 3 3 3 3 3 3 6 8 8 8 7 7
2 3 4 3 2 3 3 2 2 2 2 2 1 2 2 3 3 2 2 1 2 2 2 2 2 2 2 2 2 2 2 2 3 3 2 2 2 3 5 7 8 7 7
3 3 4 3 2 3 3 2 2 3 2 2 2 2 2 3 3 3 2 1 2 2 2 2 2 2 2 2 1 2 2 2 2 3 3 3 3 3 2 4 7 7 7
3 3 4 3 2 4 3 2 2 3 2 2 2 2 2 2 3 3 1 1 2 2 2 2 2 2 1 0 1 2 1 1 1 2 2 2 2 2 3 3 3 4 7
4 4 5 4 3 3 2 2 2 2 1 2 1 2 2 2 2 2 1 2 2 2 1 1 1 1 1 1 2 1 1 1 1 1 1 1 2 2 3 3 2 2 3
4 4 4 4 4 3 2 2 2 2 1 2 2 2 2 2 2 2 2 1 1 1 1 1 1 1 0 1 1 1 1 1 2 1 1 1 1 2 2 3 3 3 3
4 3 4 4 4 3 3 2 2 2 2 2 2 2 2 3 3 3 2 2 1 1 1 1 0 1 0 1 1 1 1 0 1 1 1 1 1 1 2 2 4 4 4
4 4 4 4 4 3 3 3 3 2 1 1 1 1 2 3 3 3 2 2 2 1 2 1 1 0 1 0 1 1 0 1 1 0 1 1 1 1 2 3 3 3 4
5 4 4 4 4 4 3 3 2 2 1 1 1 2 2 2 2 2 2 2 2 1 1 1 1 0 0 0 0 0 1 1 0 1 0 1 1 1 2 2 2 2 3
5 4 4 4 4 3 3 3 2 2 2 2 2 1 1 1 1 1 1 1 1 1 1 1 1 0 0 0 0 0 0 0 0 1 1 0 0 1 2 2 2 2 3
Wind_Direction
89 94 81 71 66 64 65 64 65 64 62 60 61 61 61 60 60 59 59 63 68 68 65 64 64 69 71 72 73 75 77 80 78 78 73 69 73 74 71 65 72 83 90
97 97 86 75 70 67 69 66 65 65 65 62 63 63 62 62 62 62 62 63 65 66 65 65 67 70 72 72 73 72 73 77 80 82 82 72 75 80 77 69 67 83 88
98 103 92 77 72 70 70 68 67 67 68 65 63 63 63 63 63 64 65 65 69 70 69 67 68 70 70 70 70 68 70 73 77 80 80 83 80 79 75 72 75 82 84
94 97 91 83 76 73 71 69 68 68 68 65 63 64 62 62 64 66 66 67 71 75 74 71 70 70 69 67 68 66 62 54 52 54 69 74 72 79 73 70 73 80 81
91 95 91 86 80 77 74 72 69 67 67 65 64 66 65 67 68 66 65 67 69 72 74 71 68 66 67 67 65 60 52 43 40 48 60 69 68 77 72 69 73 80 80
96 99 98 91 86 82 79 75 70 66 65 64 65 66 67 71 72 70 69 70 70 70 72 73 70 67 65 63 59 52 42 35 39 56 57 65 76 80 75 70 77 80 79
99 106 109 103 96 90 84 79 73 69 66 66 67 69 71 73 75 74 72 71 71 70 72 73 73 69 65 62 55 46 37 32 65 64 62 61 75 83 77 71 76 78 79
103 110 116 116 110 101 90 82 77 74 70 70 71 71 74 74 74 76 74 72 73 72 72 73 72 70 65 60 51 41 35 31 67 77 76 71 77 80 75 69 71 74 74
109 117 127 134 129 118 105 94 85 81 79 78 78 78 82 83 80 78 75 71 74 77 77 75 74 74 69 60 51 41 33 30 41 60 75 72 78 76 74 71 69 68 68
113 120 128 132 136 137 128 114 105 99 97 96 93 90 99 101 94 85 82 74 75 78 81 82 81 80 73 61 49 33 17 20 58 59 64 77 80 77 72 72 72 69 68
105 114 120 129 134 132 133 130 136 130 129 128 140 143 134 136 120 98 86 89 84 80 82 89 84 86 78 55 33 353 3 58 72 71 63 78 78 75 73 72 70 69 69
103 103 108 113 118 117 111 128 149 144 148 169 147 159 169 103 91 96 101 99 93 84 77 81 77 74 46 349 74 35 43 65 72 76 74 79 75 73 71 69 69 69 68
106 94 94 107 106 107 109 120 118 113 133 131 76 101 92 96 109 108 126 117 106 100 60 66 59 315 41 51 62 59 59 60 63 66 73 76 74 71 69 68 67 67 66
91 96 87 88 99 105 109 115 117 110 108 94 48 84 85 76 82 99 105 111 110 88 48 57 30 47 50 52 61 60 64 69 71 76 73 73 72 70 67 67 68 69 67
110 119 98 82 88 100 98 107 114 105 102 112 76 53 87 87 80 83 84 76 79 75 64 33 38 41 38 37 47 55 61 70 83 82 76 74 71 68 66 66 67 69 70
109 105 110 109 90 92 100 95 91 97 98 90 81 52 80 81 80 74 77 72 71 70 66 53 59 54 45 39 38 44 52 61 80 96 97 80 76 72 68 65 64 67 70
106 107 103 100 88 93 99 95 98 99 98 85 88 74 89 91 87 77 71 73 74 73 69 56 61 59 57 53 44 41 45 51 60 79 100 106 90 76 72 68 62 65 69
69 94 101 100 94 90 91 97 97 92 80 74 61 53 68 86 90 86 76 65 67 64 68 67 62 62 52 47 40 37 45 52 50 59 76 94 101 91 79 74 67 66 68
47 65 93 97 106 92 89 86 76 87 74 65 53 52 46 69 85 84 74 61 60 64 64 68 63 68 63 57 51 54 50 49 43 52 51 65 78 90 104 94 80 73 72
49 50 78 80 96 90 83 80 71 80 79 67 50 54 56 57 73 87 94 80 64 69 67 67 67 64 74 79 71 67 58 64 41 44 48 56 70 90 94 103 102 82 75
58 56 63 61 69 84 80 84 82 76 74 73 60 58 61 66 77 81 70 74 67 67 79 84 83 68 49 59 65 41 27 42 65 59 50 56 48 58 80 85 93 105 88
57 50 68 58 58 71 64 75 89 93 87 86 63 50 46 53 65 84 79 87 97 94 80 67 81 80 46 63 105 109 33 358 4 40 73 75 47 49 69 89 82 88 94
69 49 65 64 61 67 70 65 67 67 65 68 61 52 39 46 50 56 57 74 96 99 98 92 72 106 162 332 63 123 128 180 325 340 43 69 56 53 50 60 67 75 86
67 43 55 66 63 64 83 78 82 88 82 81 77 63 54 51 45 51 46 54 67 84 95 88 76 63 128 308 334 351 154 162 149 331 337 23 63 70 68 66 60 70 76
81 58 48 53 60 56 64 86 85 79 80 79 74 71 60 61 47 44 47 51 50 50 64 91 84 25 124 175 207 338 345 335 150 148 227 336 24 33 60 78 78 70 79
85 73 57 61 55 56 59 75 88 82 73 73 67 63 45 60 53 44 39 37 40 53 37 42 55 56 241 247 214 168 143 91 310 123 158 169 98 18 47 65 81 83 83